Regional Weather Roundup
Issued by NWS

Home | Current Version | Previous Version | Graphics & Text | Print | Product List | Glossary Off
Versions: 1 2 3 4 5 6 7 8 9 10 11 12 13 14 15 16 17 18 19 20 21 22 23 24 25 26 27 28 29 30 31 32 33 34 35 36 37 38 39 40 41 42 43 44 45 46 47 48 49 50

000
ASUS43 KDMX 280303
RWRIA

WEATHER ROUNDUP FOR IOWA
NATIONAL WEATHER SERVICE DES MOINES IA
1000 PM CDT WED JUL 27 2016

NOTE: "FAIR" INDICATES FEW OR NO CLOUDS BELOW 12,000 FEET WITH NO
SIGNIFICANT WEATHER AND/OR OBSTRUCTIONS TO VISIBILITY.

* - THESE STATIONS ARE NOT NWS STATIONS...THUS NOT UNDER NWS
QUALITY CONTROL.  THEY ALSO DO NOT REPORT WEATHER SUCH
AS PRECIPITATION OR FOG.

IAZ001>003-012>014-020>022-031>034-043>046-280400-
   NORTHWEST IOWA

CITY           SKY/WX    TMP DP  RH WIND       PRES   REMARKS
CARROLL *      MOCLDY    70  68  94 W5        29.97R
CHEROKEE *     CLEAR     74  68  81 N7        29.99S
DENISON *      CLEAR     72  70  94 CALM      29.96S
LE MARS *      PTCLDY    75  66  73 N5        30.01R
SHELDON *      CLOUDY    68  66  94 N3        30.01R
SIOUX CITY     CLOUDY    80  67  64 NE9       29.99R HX  82
SPENCER        CLEAR     69  64  84 NW3       30.01R
STORM LAKE *   PTCLDY    72  68  88 N8        30.01R
$$

IAZ055>058-069>071-079>083-090>094-280400-
   SOUTHWEST IOWA

CITY           SKY/WX    TMP DP  RH WIND       PRES   REMARKS
ATLANTIC *     CLEAR     72  70  94 N6        29.98R
CLARINDA *       N/A     73  72  94 MISG      30.00R
COUNCIL BLFS *   N/A     75  70  83 N3        29.99R
CRESTON *      CLEAR     75  70  83 N6        29.99R
HARLAN  *      CLEAR     72  70  94 CALM      30.01S
LAMONI         PTCLDY    76  73  91 CALM      29.96R
RED OAK *      PTCLDY    73  70  88 N3        29.98R
SHENANDOAH *     N/A     73  73 100 N3        29.98R
$$

IAZ047>049-059>061-072>074-084-280400-
   CENTRAL IOWA

CITY           SKY/WX    TMP DP  RH WIND       PRES   REMARKS
AMES           PTCLDY    72  71  97 SW6       29.94S
ANKENY *         N/A    N/A N/A N/A MISG        N/A
BOONE *          N/A     73  70  88 SW6       29.95S
CHARITON *       N/A    N/A N/A N/A MISG        N/A
DES MOINES     PTCLDY    80  68  66 CALM      29.95R HX  83
GRINNELL*      CLEAR     71  67  88 CALM      29.96S
KNOXVILLE *    CLEAR     77  70  78 NE3       29.95R
MARSHALLTOWN   CLEAR     72  69  90 S7        29.93F
NEWTON *       CLEAR     70  70 100 CALM      29.94S
PELLA *        CLEAR     73  69  89 CALM      29.96R
PERRY *          N/A     73  72  97 CALM      29.97R
$$

IAZ004>006-015-016-023>025-035-036-280400-
   NORTH CENTRAL IOWA

CITY           SKY/WX    TMP DP  RH WIND       PRES   REMARKS
ALGONA *       PTCLDY    72  68  88 N5        29.99R
ESTHERVILLE    CLEAR     69  66  90 N7        30.00R
FORT DODGE *   CLOUDY    73  70  88 CALM      29.98R
MASON CITY     CLEAR     68  66  93 CALM      29.97R
FOREST CITY *    N/A     70  70 100 NW3       29.96R
IOWA FALLS *     N/A     73  68  87 SW5       29.96R
$$

IAZ007>011-017>019-026>030-037>042-050>054-066-280400-
   NORTHEAST IOWA

CITY           SKY/WX    TMP DP  RH WIND       PRES   REMARKS
CEDAR RAPIDS   CLEAR     70  70 100 S3        29.93S
CHARLES CITY * PTCLDY    70  70 100 SW3       29.95R
CLINTON *      CLOUDY    75  71  87 E6        29.94S
DECORAH *      CLOUDY    72  68  88 CALM      29.94R
DUBUQUE        PTCLDY    73  68  84 CALM      29.95S
MONTICELLO *   CLEAR     72  70  94 CALM      29.93S FOG
OELWEIN *      CLOUDY    70  68  94 CALM      29.97R
WATERLOO       PTCLDY    71  67  87 CALM      29.93R
$$

IAZ064-065-067-068-078-280400-
   EAST CENTRAL IOWA

CITY           SKY/WX    TMP DP  RH WIND       PRES   REMARKS
DAVENPORT      MOCLDY    75  71  87 E5        29.94S
IOWA CITY      PTCLDY    74  69  85 W3        29.95R
MT. PLEASANT * CLEAR     76  74  96 N3        29.94R
MUSCATINE *    PTCLDY    73  72  94 W5        29.93R
QUAD CITIES    MOCLDY    76  71  85 SE3       29.92S
$$

IAZ062-063-075>077-085>089-095>099-280400-
   SOUTHEAST IOWA

CITY           SKY/WX    TMP DP  RH WIND       PRES   REMARKS
BURLINGTON     CLEAR     75  73  93 CALM      29.93R
FAIRFIELD *    CLEAR     73  68  83 N5        29.94R
KEOKUK *       CLEAR     77  73  88 N6        29.92R
CENTERVILLE *    N/A     72  68  88 CALM      29.97R
OTTUMWA        PTCLDY    75  70  84 N5        29.93R
WASHINGTON *   PTCLDY    73  70  88 N6        29.95R
$$

ABBREVIATIONS USED IN REMARKS
   TC - TEMPERATURES IN CELSIUS
  WCI - WIND CHILL INDEX
   HX - HEAT INDEX
  VSB - VISIBILITY
$$





USA.gov is the U.S. government's official web portal to all federal, state and local government web resources and services.